Regional Weather Roundup
Issued by NWS

Home | Current Version | Previous Version | Graphics & Text | Print | Product List | Glossary On
Versions: 1 2 3 4 5 6 7 8 9 10 11 12 13 14 15 16 17 18 19 20 21 22 23 24 25 26 27 28 29 30 31 32 33 34 35 36 37 38 39 40 41 42 43 44 45 46 47 48 49 50
000
ASUS43 KIND 220159
RWRIN

WEATHER ROUNDUP FOR INDIANA
NATIONAL WEATHER SERVICE INDIANAPOLIS IN
1000 PM EDT THU MAY 21 2015

NOTE: "FAIR" INDICATES FEW OR NO CLOUDS BELOW 12,000 FEET WITH NO
SIGNIFICANT WEATHER AND/OR OBSTRUCTIONS TO VISIBILITY.

* - STATION DOES NOT REPORT WEATHER SUCH AS PRECIPITATION OR FOG.

+ - STATION NOT QUALITY CONTROLLED BY THE NATIONAL WEATHER SERVICE.
    USE DATA WITH CAUTION...ESPECIALLY DEWPOINT AND RELATIVE
    HUMIDITY OBSERVATIONS.

INZ001>003-010>013-019-020-220300-
NORTHWEST INDIANA

CITY           SKY/WX    TMP DP  RH WIND       PRES   REMARKS
GARY /AIRPORT/ CLEAR     50  37  62 VRB7      30.04R
RENSSELAER +   CLEAR     55  37  50 S6        30.06S

$$

LMZ046-743>745-220300-
SOUTHERN LAKE MICHIGAN

STATION/POSITION TIME  TEMP    WIND        PRES    WAVE
                       AIR SEA DIR/SP/G            HT
                 (UTC) (F)     (DEG/KT/KT) (MB)    (FT)
BURNS HARBOR     0100   64     210/  6/  8 1017.3S
MICHIGAN CITY    0100   63     180/  7/  8   N/A
5NW MICH CITY    0100   56 52  220/  6/  8   N/A     0

$$

INZ004-005-014>016-021>024-220300-
NORTH CENTRAL INDIANA

CITY           SKY/WX    TMP DP  RH WIND       PRES   REMARKS
GOSHEN         CLEAR     51  36  56 SW7       30.03S
SOUTH BEND     CLEAR     56  35  45 SW5       30.04R
WARSAW +       CLEAR     50  39  66 CALM      30.05R

$$

INZ006>009-017-018-025>027-220300-
NORTHEAST INDIANA

CITY           SKY/WX    TMP DP  RH WIND       PRES   REMARKS
ANGOLA *+      CLEAR     52  37  58 CALM      30.03R
FORT WAYNE     CLEAR     52  41  66 SW6       30.06R

$$

INZ028-029-035-036-043>045-051>053-220300-
WEST CENTRAL INDIANA

CITY           SKY/WX    TMP DP  RH WIND       PRES   REMARKS
CRAWFORDSVL +  CLEAR     53  34  48 SW7       30.10S
GREENCASTLE +  CLEAR     50  37  62 CALM      30.12R
LAFAYETTE      CLEAR     54  39  57 CALM      30.08R
TERRE HAUTE    CLEAR     54  43  66 SW6       30.13R

$$

INZ030>032-037>040-046>048-054>057-064-065-220300-
CENTRAL INDIANA

CITY           SKY/WX    TMP DP  RH WIND       PRES   REMARKS
GREENWOOD *+   CLEAR     55  36  47 SW7       30.11R
INDIANAPOLIS   CLEAR     55  40  56 SW10      30.09R
-EAGLE CREEK   CLEAR     57  37  47 SW5       30.09R
KOKOMO *+      CLEAR     55  39  54 W6        30.07R
MT COMFORT *+  CLEAR     52  28  40 SW6       30.10R
SHELBYVILLE    CLEAR     55  39  54 SW8       30.10R

$$

INZ033-034-041-042-049-050-058-059-220300-
EAST CENTRAL INDIANA

CITY           SKY/WX    TMP DP  RH WIND       PRES   REMARKS
MUNCIE         CLEAR     54  38  54 SW5       30.08R

$$

INZ060-061-067>069-081>083-085>088-220300-
SOUTHWEST INDIANA

CITY           SKY/WX    TMP DP  RH WIND       PRES   REMARKS
EVANSVILLE     CLEAR     53  45  74 W3        30.19R
HUNTINGBURG *+ CLEAR     50  41  71 W3        30.18R

$$

INZ062-063-066-070>080-084-089>092-220300-
SOUTH CENTRAL AND SOUTHEAST INDIANA

CITY           SKY/WX    TMP DP  RH WIND       PRES   REMARKS
BLOOMINGTON    CLEAR     52  43  71 SW6       30.13R
MADISON *+     CLEAR     48  43  81 CALM      30.15R
SEYMOUR +      CLEAR     50  43  76 SW6       30.13R

$$




USA.gov is the U.S. government's official web portal to all federal, state and local government web resources and services.